QPF
0.02 0.02 0.02 0.03 0.02 0.02 0.03 0.03 0.03 0.02 0.02 0.02 0.02 0.01 0.01 0.01 0.00 0.00 0.00 0.00 0.00 0.00 0.01 0.01 0.02 0.02 0.02 0.02 0.04 0.05 0.07 0.09 0.08 0.09 0.08 0.06 0.06 0.07 0.06 0.04 0.04 0.05 0.05 0.05
0.02 0.01 0.01 0.02 0.02 0.02 0.02 0.02 0.02 0.02 0.03 0.02 0.01 0.01 0.01 0.01 0.01 0.00 0.00 0.00 0.00 0.00 0.00 0.01 0.01 0.01 0.02 0.02 0.03 0.05 0.07 0.09 0.10 0.09 0.09 0.08 0.07 0.06 0.07 0.05 0.03 0.04 0.05 0.04
0.03 0.01 0.02 0.02 0.02 0.03 0.03 0.02 0.02 0.02 0.03 0.02 0.01 0.01 0.01 0.01 0.00 0.00 0.00 0.00 0.00 0.00 0.00 0.00 0.01 0.01 0.02 0.02 0.03 0.04 0.06 0.07 0.08 0.08 0.09 0.10 0.09 0.08 0.07 0.06 0.05 0.05 0.06 0.05
0.06 0.04 0.05 0.03 0.02 0.02 0.03 0.03 0.03 0.03 0.02 0.02 0.01 0.01 0.01 0.01 0.01 0.01 0.00 0.00 0.00 0.01 0.00 0.00 0.00 0.00 0.01 0.01 0.02 0.04 0.05 0.06 0.06 0.06 0.08 0.11 0.10 0.08 0.06 0.06 0.05 0.05 0.07 0.06
0.07 0.06 0.06 0.03 0.02 0.03 0.04 0.05 0.04 0.03 0.02 0.02 0.01 0.01 0.01 0.01 0.01 0.01 0.01 0.01 0.01 0.01 0.01 0.00 0.00 0.00 0.01 0.01 0.02 0.03 0.04 0.05 0.05 0.05 0.06 0.08 0.10 0.10 0.08 0.07 0.06 0.05 0.06 0.07
0.07 0.07 0.06 0.05 0.04 0.04 0.04 0.06 0.04 0.03 0.03 0.02 0.01 0.01 0.01 0.01 0.00 0.00 0.01 0.01 0.00 0.00 0.00 0.00 0.00 0.00 0.01 0.02 0.02 0.03 0.04 0.05 0.06 0.05 0.05 0.05 0.07 0.09 0.09 0.07 0.07 0.06 0.06 0.07
0.08 0.07 0.06 0.06 0.05 0.04 0.06 0.07 0.03 0.02 0.02 0.02 0.02 0.02 0.01 0.01 0.00 0.00 0.00 0.00 0.00 0.00 0.00 0.00 0.00 0.00 0.01 0.01 0.02 0.02 0.03 0.03 0.05 0.05 0.05 0.05 0.06 0.06 0.08 0.08 0.07 0.07 0.06 0.07
0.07 0.08 0.07 0.05 0.05 0.07 0.07 0.04 0.02 0.01 0.01 0.01 0.01 0.01 0.01 0.00 0.00 0.00 0.00 0.00 0.00 0.00 0.00 0.00 0.00 0.01 0.01 0.01 0.01 0.02 0.03 0.03 0.04 0.05 0.04 0.05 0.06 0.06 0.07 0.07 0.07 0.07 0.07 0.07
0.08 0.09 0.09 0.07 0.07 0.07 0.05 0.03 0.02 0.02 0.02 0.02 0.01 0.01 0.01 0.00 0.00 0.00 0.00 0.00 0.00 0.00 0.00 0.00 0.00 0.01 0.01 0.01 0.01 0.02 0.02 0.03 0.04 0.04 0.04 0.04 0.05 0.05 0.06 0.07 0.07 0.07 0.07 0.06
0.06 0.05 0.05 0.05 0.04 0.03 0.03 0.03 0.02 0.02 0.02 0.02 0.02 0.02 0.01 0.01 0.01 0.00 0.00 0.00 0.00 0.00 0.00 0.00 0.00 0.01 0.01 0.01 0.01 0.02 0.02 0.03 0.04 0.05 0.04 0.05 0.05 0.05 0.05 0.05 0.06 0.06 0.06 0.05
0.04 0.05 0.04 0.05 0.04 0.03 0.03 0.02 0.02 0.02 0.02 0.02 0.02 0.02 0.02 0.02 0.02 0.01 0.01 0.01 0.01 0.00 0.00 0.00 0.00 0.01 0.01 0.01 0.01 0.02 0.02 0.02 0.03 0.04 0.05 0.04 0.05 0.05 0.05 0.05 0.05 0.06 0.06 0.05
0.05 0.06 0.06 0.07 0.07 0.06 0.05 0.04 0.03 0.02 0.02 0.02 0.02 0.02 0.02 0.02 0.02 0.01 0.01 0.01 0.01 0.01 0.01 0.01 0.01 0.00 0.00 0.01 0.01 0.02 0.02 0.03 0.02 0.03 0.03 0.04 0.05 0.05 0.06 0.06 0.06 0.06 0.06 0.05
0.06 0.05 0.05 0.05 0.05 0.06 0.05 0.04 0.04 0.03 0.02 0.02 0.01 0.01 0.01 0.01 0.01 0.01 0.01 0.01 0.02 0.02 0.02 0.01 0.01 0.01 0.01 0.01 0.01 0.01 0.03 0.03 0.02 0.02 0.02 0.03 0.04 0.04 0.04 0.05 0.06 0.06 0.05 0.05
0.04 0.03 0.04 0.04 0.05 0.05 0.04 0.04 0.03 0.02 0.02 0.01 0.01 0.01 0.01 0.01 0.01 0.01 0.02 0.02 0.02 0.02 0.02 0.01 0.01 0.01 0.01 0.01 0.01 0.01 0.02 0.03 0.03 0.02 0.02 0.02 0.03 0.04 0.04 0.05 0.05 0.04 0.04 0.04
0.03 0.04 0.04 0.03 0.03 0.03 0.03 0.03 0.03 0.03 0.02 0.02 0.02 0.02 0.02 0.02 0.02 0.02 0.02 0.02 0.02 0.03 0.03 0.02 0.02 0.02 0.01 0.01 0.01 0.01 0.02 0.02 0.03 0.04 0.02 0.02 0.02 0.03 0.03 0.04 0.05 0.05 0.03 0.03
0.02 0.02 0.02 0.01 0.02 0.02 0.02 0.02 0.02 0.03 0.03 0.03 0.02 0.03 0.03 0.03 0.03 0.03 0.02 0.02 0.02 0.02 0.02 0.02 0.02 0.02 0.02 0.02 0.02 0.02 0.02 0.02 0.03 0.03 0.03 0.02 0.02 0.02 0.02 0.03 0.03 0.04 0.03 0.03
0.01 0.01 0.01 0.01 0.01 0.02 0.02 0.02 0.03 0.03 0.03 0.03 0.03 0.03 0.03 0.02 0.02 0.02 0.02 0.02 0.02 0.02 0.02 0.02 0.02 0.02 0.02 0.02 0.01 0.02 0.02 0.02 0.02 0.03 0.03 0.03 0.02 0.02 0.02 0.02 0.03 0.02 0.02 0.02
0.01 0.02 0.02 0.02 0.02 0.02 0.02 0.02 0.03 0.03 0.03 0.03 0.03 0.02 0.02 0.02 0.02 0.02 0.02 0.01 0.01 0.01 0.01 0.02 0.02 0.02 0.02 0.02 0.02 0.02 0.02 0.02 0.02 0.02 0.03 0.02 0.02 0.02 0.02 0.02 0.02 0.02 0.03 0.02
0.01 0.02 0.02 0.02 0.02 0.02 0.02 0.02 0.02 0.03 0.03 0.02 0.02 0.01 0.01 0.01 0.01 0.01 0.01 0.01 0.01 0.02 0.02 0.02 0.01 0.01 0.02 0.02 0.03 0.03 0.03 0.02 0.02 0.02 0.02 0.02 0.02 0.03 0.03 0.03 0.02 0.02 0.02 0.02
0.02 0.02 0.02 0.03 0.02 0.02 0.03 0.02 0.02 0.02 0.02 0.02 0.01 0.01 0.01 0.01 0.01 0.02 0.02 0.02 0.02 0.03 0.03 0.02 0.02 0.01 0.01 0.02 0.03 0.04 0.04 0.03 0.02 0.02 0.02 0.02 0.03 0.02 0.02 0.02 0.02 0.02 0.02 0.02
0.02 0.02 0.02 0.02 0.02 0.02 0.02 0.01 0.01 0.01 0.01 0.01 0.01 0.01 0.01 0.01 0.02 0.02 0.02 0.02 0.02 0.02 0.02 0.02 0.02 0.02 0.02 0.02 0.03 0.03 0.03 0.03 0.02 0.02 0.02 0.02 0.02 0.02 0.02 0.02 0.02 0.02 0.02 0.02
0.01 0.01 0.01 0.01 0.01 0.01 0.01 0.01 0.00 0.00 0.00 0.00 0.01 0.01 0.01 0.01 0.01 0.01 0.01 0.02 0.02 0.02 0.02 0.02 0.02 0.02 0.03 0.03 0.03 0.02 0.02 0.02 0.02 0.02 0.02 0.02 0.02 0.02 0.02 0.02 0.02 0.02 0.02 0.02
0.01 0.01 0.01 0.01 0.01 0.01 0.01 0.01 0.01 0.01 0.01 0.01 0.01 0.01 0.01 0.01 0.01 0.01 0.02 0.02 0.02 0.02 0.02 0.02 0.02 0.03 0.03 0.03 0.02 0.02 0.02 0.02 0.02 0.02 0.02 0.02 0.02 0.02 0.02 0.02 0.02 0.02 0.02 0.02
0.01 0.01 0.01 0.01 0.01 0.01 0.01 0.01 0.01 0.01 0.01 0.01 0.01 0.01 0.01 0.01 0.00 0.01 0.01 0.01 0.02 0.02 0.02 0.02 0.02 0.02 0.02 0.02 0.02 0.02 0.02 0.02 0.02 0.02 0.02 0.02 0.02 0.02 0.02 0.02 0.02 0.02 0.02 0.02
0.01 0.01 0.01 0.01 0.01 0.01 0.01 0.01 0.01 0.01 0.01 0.01 0.01 0.01 0.01 0.01 0.01 0.01 0.01 0.01 0.01 0.01 0.01 0.01 0.01 0.01 0.01 0.01 0.01 0.01 0.01 0.01 0.01 0.01 0.01 0.01 0.01 0.02 0.02 0.02 0.02 0.01 0.01 0.01
0.01 0.01 0.01 0.01 0.01 0.02 0.01 0.01 0.01 0.01 0.01 0.00 0.00 0.00 0.00 0.01 0.01 0.01 0.01 0.01 0.01 0.01 0.01 0.01 0.01 0.01 0.01 0.01 0.01 0.01 0.01 0.01 0.01 0.01 0.01 0.01 0.01 0.01 0.01 0.01 0.01 0.01 0.01 0.01
0.01 0.01 0.01 0.01 0.01 0.01 0.01 0.01 0.01 0.01 0.01 0.01 0.01 0.01 0.01 0.01 0.01 0.01 0.01 0.01 0.01 0.01 0.01 0.01 0.01 0.01 0.01 0.01 0.01 0.01 0.01 0.01 0.01 0.01 0.01 0.01 0.01 0.01 0.01 0.01 0.01 0.01 0.01 0.01
MSLP
1018.71 1018.90 1019.12 1019.36 1019.58 1019.75 1019.84 1019.83 1019.70 1019.47 1019.16 1018.82 1018.51 1018.27 1018.15 1018.17 1018.33 1018.60 1018.96 1019.36 1019.74 1020.07 1020.30 1020.44 1020.47 1020.40 1020.26 1020.07 1019.84 1019.58 1019.31 1019.04 1018.75 1018.46 1018.15 1017.86 1017.57 1017.31 1017.07 1016.88 1016.73 1016.62 1016.55 1016.51
1018.62 1018.65 1018.68 1018.71 1018.73 1018.73 1018.68 1018.59 1018.44 1018.24 1018.02 1017.81 1017.63 1017.53 1017.52 1017.63 1017.84 1018.15 1018.52 1018.93 1019.34 1019.71 1020.02 1020.26 1020.41 1020.48 1020.48 1020.41 1020.29 1020.11 1019.90 1019.64 1019.35 1019.03 1018.68 1018.33 1017.99 1017.66 1017.36 1017.10 1016.87 1016.69 1016.54 1016.43
1018.37 1018.21 1018.02 1017.82 1017.61 1017.41 1017.21 1017.03 1016.86 1016.71 1016.60 1016.52 1016.51 1016.57 1016.71 1016.93 1017.23 1017.59 1018.00 1018.44 1018.87 1019.29 1019.67 1020.00 1020.27 1020.47 1020.60 1020.66 1020.65 1020.57 1020.42 1020.21 1019.93 1019.60 1019.24 1018.86 1018.47 1018.10 1017.76 1017.45 1017.17 1016.93 1016.73 1016.57
1017.91 1017.55 1017.13 1016.69 1016.26 1015.86 1015.53 1015.27 1015.09 1015.00 1015.00 1015.08 1015.25 1015.50 1015.81 1016.18 1016.59 1017.04 1017.51 1017.98 1018.46 1018.91 1019.35 1019.75 1020.11 1020.42 1020.66 1020.83 1020.92 1020.93 1020.84 1020.67 1020.43 1020.11 1019.75 1019.37 1018.97 1018.59 1018.23 1017.89 1017.60 1017.33 1017.10 1016.91
1017.22 1016.67 1016.05 1015.40 1014.78 1014.23 1013.78 1013.46 1013.28 1013.26 1013.38 1013.63 1013.99 1014.43 1014.93 1015.47 1016.02 1016.58 1017.12 1017.66 1018.17 1018.67 1019.14 1019.59 1020.00 1020.37 1020.69 1020.93 1021.09 1021.16 1021.12 1021.00 1020.79 1020.50 1020.16 1019.80 1019.42 1019.06 1018.71 1018.39 1018.10 1017.84 1017.61 1017.39
1016.33 1015.64 1014.87 1014.08 1013.32 1012.65 1012.12 1011.77 1011.62 1011.66 1011.90 1012.30 1012.84 1013.47 1014.16 1014.87 1015.57 1016.25 1016.89 1017.48 1018.04 1018.57 1019.06 1019.53 1019.96 1020.35 1020.70 1020.97 1021.16 1021.26 1021.26 1021.17 1021.00 1020.75 1020.45 1020.13 1019.79 1019.47 1019.16 1018.88 1018.62 1018.38 1018.16 1017.94
1015.30 1014.54 1013.69 1012.83 1012.00 1011.28 1010.72 1010.37 1010.24 1010.35 1010.69 1011.22 1011.90 1012.69 1013.54 1014.40 1015.24 1016.03 1016.76 1017.42 1018.02 1018.57 1019.07 1019.53 1019.95 1020.34 1020.67 1020.94 1021.13 1021.24 1021.27 1021.20 1021.06 1020.86 1020.61 1020.34 1020.07 1019.80 1019.54 1019.31 1019.09 1018.88 1018.67 1018.45
1014.20 1013.44 1012.60 1011.75 1010.93 1010.22 1009.68 1009.35 1009.26 1009.42 1009.82 1010.43 1011.22 1012.11 1013.08 1014.05 1014.99 1015.87 1016.68 1017.39 1018.03 1018.59 1019.09 1019.54 1019.94 1020.29 1020.59 1020.84 1021.02 1021.12 1021.15 1021.11 1021.01 1020.85 1020.66 1020.45 1020.24 1020.03 1019.83 1019.64 1019.45 1019.26 1019.05 1018.83
1013.10 1012.41 1011.65 1010.88 1010.15 1009.51 1009.03 1008.74 1008.69 1008.88 1009.31 1009.95 1010.77 1011.72 1012.73 1013.76 1014.76 1015.71 1016.56 1017.32 1017.98 1018.55 1019.05 1019.48 1019.85 1020.17 1020.44 1020.66 1020.82 1020.92 1020.96 1020.94 1020.87 1020.77 1020.63 1020.48 1020.32 1020.16 1019.99 1019.83 1019.66 1019.47 1019.25 1019.01
1012.01 1011.45 1010.83 1010.21 1009.61 1009.09 1008.70 1008.48 1008.46 1008.67 1009.09 1009.72 1010.53 1011.46 1012.47 1013.50 1014.52 1015.47 1016.35 1017.13 1017.81 1018.39 1018.89 1019.31 1019.66 1019.96 1020.21 1020.41 1020.56 1020.66 1020.72 1020.73 1020.70 1020.63 1020.55 1020.44 1020.32 1020.19 1020.04 1019.88 1019.70 1019.49 1019.24 1018.96
1010.91 1010.51 1010.07 1009.63 1009.21 1008.84 1008.57 1008.44 1008.47 1008.68 1009.08 1009.67 1010.42 1011.29 1012.25 1013.24 1014.23 1015.18 1016.05 1016.84 1017.53 1018.12 1018.62 1019.04 1019.39 1019.69 1019.93 1020.12 1020.27 1020.39 1020.46 1020.50 1020.51 1020.48 1020.43 1020.35 1020.25 1020.12 1019.97 1019.79 1019.57 1019.32 1019.03 1018.70
1009.74 1009.50 1009.26 1009.02 1008.80 1008.61 1008.48 1008.45 1008.54 1008.78 1009.16 1009.70 1010.39 1011.19 1012.07 1013.00 1013.94 1014.85 1015.71 1016.49 1017.18 1017.79 1018.30 1018.73 1019.09 1019.39 1019.64 1019.84 1020.00 1020.14 1020.23 1020.30 1020.33 1020.33 1020.29 1020.22 1020.11 1019.97 1019.79 1019.57 1019.30 1019.00 1018.66 1018.28
1008.45 1008.37 1008.31 1008.26 1008.24 1008.24 1008.28 1008.38 1008.56 1008.84 1009.24 1009.76 1010.39 1011.13 1011.95 1012.82 1013.70 1014.58 1015.41 1016.19 1016.88 1017.49 1018.01 1018.46 1018.83 1019.14 1019.40 1019.62 1019.79 1019.94 1020.05 1020.13 1020.17 1020.18 1020.14 1020.06 1019.93 1019.76 1019.53 1019.26 1018.95 1018.59 1018.20 1017.78
1007.04 1007.07 1007.17 1007.31 1007.48 1007.67 1007.89 1008.14 1008.45 1008.82 1009.27 1009.81 1010.44 1011.15 1011.93 1012.76 1013.61 1014.45 1015.27 1016.03 1016.72 1017.33 1017.86 1018.31 1018.69 1019.01 1019.27 1019.49 1019.67 1019.81 1019.92 1020.00 1020.03 1020.03 1019.98 1019.87 1019.71 1019.50 1019.23 1018.91 1018.55 1018.15 1017.72 1017.28
1005.56 1005.68 1005.91 1006.20 1006.55 1006.93 1007.33 1007.76 1008.23 1008.73 1009.28 1009.89 1010.56 1011.29 1012.08 1012.89 1013.72 1014.55 1015.35 1016.09 1016.77 1017.38 1017.91 1018.35 1018.72 1019.03 1019.28 1019.48 1019.64 1019.76 1019.85 1019.90 1019.91 1019.88 1019.80 1019.66 1019.46 1019.21 1018.90 1018.55 1018.15 1017.73 1017.29 1016.84
1004.18 1004.36 1004.67 1005.09 1005.59 1006.14 1006.73 1007.35 1007.99 1008.65 1009.34 1010.06 1010.81 1011.60 1012.42 1013.25 1014.09 1014.90 1015.69 1016.42 1017.08 1017.66 1018.16 1018.58 1018.92 1019.20 1019.42 1019.58 1019.70 1019.78 1019.83 1019.84 1019.81 1019.74 1019.62 1019.44 1019.21 1018.93 1018.60 1018.23 1017.82 1017.39 1016.95 1016.50
1003.10 1003.31 1003.69 1004.20 1004.83 1005.53 1006.29 1007.08 1007.89 1008.71 1009.55 1010.40 1011.26 1012.12 1012.99 1013.84 1014.69 1015.50 1016.26 1016.96 1017.58 1018.13 1018.59 1018.96 1019.26 1019.48 1019.64 1019.75 1019.82 1019.84 1019.84 1019.79 1019.72 1019.60 1019.44 1019.24 1018.99 1018.69 1018.35 1017.97 1017.57 1017.15 1016.72 1016.29
1002.56 1002.79 1003.20 1003.78 1004.49 1005.31 1006.20 1007.13 1008.09 1009.06 1010.03 1010.99 1011.93 1012.86 1013.76 1014.64 1015.48 1016.26 1016.99 1017.64 1018.21 1018.70 1019.10 1019.41 1019.64 1019.80 1019.90 1019.95 1019.95 1019.92 1019.86 1019.76 1019.64 1019.49 1019.30 1019.07 1018.80 1018.50 1018.16 1017.80 1017.41 1017.01 1016.60 1016.19
1002.75 1002.98 1003.42 1004.03 1004.80 1005.68 1006.66 1007.68 1008.74 1009.79 1010.84 1011.87 1012.86 1013.81 1014.72 1015.57 1016.38 1017.11 1017.78 1018.36 1018.86 1019.27 1019.60 1019.84 1020.00 1020.10 1020.14 1020.12 1020.07 1019.99 1019.87 1019.74 1019.58 1019.39 1019.19 1018.95 1018.68 1018.39 1018.07 1017.72 1017.35 1016.97 1016.57 1016.17
1003.73 1003.98 1004.42 1005.04 1005.83 1006.74 1007.73 1008.79 1009.87 1010.95 1012.00 1013.03 1014.00 1014.92 1015.77 1016.57 1017.29 1017.95 1018.52 1019.01 1019.43 1019.75 1020.00 1020.17 1020.27 1020.31 1020.30 1020.24 1020.14 1020.02 1019.88 1019.71 1019.53 1019.34 1019.12 1018.89 1018.63 1018.34 1018.04 1017.71 1017.36 1016.98 1016.59 1016.18
1005.45 1005.71 1006.15 1006.77 1007.53 1008.42 1009.38 1010.40 1011.43 1012.46 1013.45 1014.40 1015.29 1016.11 1016.86 1017.54 1018.15 1018.69 1019.15 1019.54 1019.85 1020.09 1020.26 1020.37 1020.42 1020.41 1020.36 1020.27 1020.15 1020.01 1019.86 1019.68 1019.50 1019.30 1019.09 1018.86 1018.61 1018.34 1018.05 1017.73 1017.39 1017.01 1016.61 1016.19
1007.73 1008.00 1008.43 1009.03 1009.75 1010.57 1011.45 1012.38 1013.30 1014.21 1015.08 1015.89 1016.63 1017.31 1017.91 1018.44 1018.90 1019.30 1019.64 1019.91 1020.12 1020.28 1020.38 1020.44 1020.44 1020.41 1020.34 1020.23 1020.11 1019.97 1019.81 1019.64 1019.46 1019.27 1019.07 1018.85 1018.61 1018.35 1018.06 1017.74 1017.39 1017.01 1016.59 1016.14
1010.30 1010.59 1011.02 1011.57 1012.22 1012.95 1013.73 1014.52 1015.29 1016.04 1016.73 1017.37 1017.93 1018.43 1018.86 1019.22 1019.53 1019.79 1019.99 1020.15 1020.27 1020.35 1020.40 1020.41 1020.38 1020.33 1020.25 1020.15 1020.03 1019.89 1019.74 1019.58 1019.40 1019.22 1019.02 1018.80 1018.57 1018.31 1018.02 1017.69 1017.33 1016.93 1016.49 1016.01
1012.89 1013.20 1013.61 1014.12 1014.70 1015.32 1015.97 1016.60 1017.21 1017.77 1018.28 1018.73 1019.10 1019.42 1019.67 1019.88 1020.04 1020.16 1020.25 1020.31 1020.35 1020.37 1020.36 1020.34 1020.29 1020.23 1020.14 1020.03 1019.91 1019.78 1019.63 1019.47 1019.30 1019.11 1018.91 1018.69 1018.45 1018.18 1017.88 1017.55 1017.17 1016.75 1016.29 1015.79
1015.28 1015.60 1016.00 1016.45 1016.95 1017.46 1017.97 1018.45 1018.89 1019.28 1019.61 1019.88 1020.08 1020.24 1020.34 1020.41 1020.44 1020.46 1020.46 1020.44 1020.42 1020.38 1020.34 1020.28 1020.21 1020.12 1020.02 1019.91 1019.78 1019.64 1019.48 1019.31 1019.13 1018.93 1018.72 1018.48 1018.23 1017.94 1017.63 1017.28 1016.89 1016.46 1015.98 1015.47
1017.33 1017.64 1018.01 1018.41 1018.82 1019.23 1019.61 1019.95 1020.24 1020.48 1020.66 1020.78 1020.85 1020.87 1020.87 1020.83 1020.78 1020.72 1020.65 1020.58 1020.51 1020.43 1020.35 1020.26 1020.16 1020.05 1019.93 1019.79 1019.64 1019.47 1019.29 1019.09 1018.88 1018.66 1018.43 1018.17 1017.89 1017.59 1017.26 1016.90 1016.50 1016.06 1015.58 1015.07
1018.99 1019.29 1019.61 1019.95 1020.27 1020.58 1020.84 1021.06 1021.23 1021.35 1021.41 1021.43 1021.40 1021.34 1021.26 1021.17 1021.06 1020.95 1020.85 1020.74 1020.64 1020.53 1020.42 1020.29 1020.16 1020.02 1019.85 1019.68 1019.48 1019.28 1019.06 1018.82 1018.58 1018.32 1018.05 1017.77 1017.47 1017.14 1016.80 1016.42 1016.02 1015.59 1015.12 1014.63
Thickness
5411 5421 5424 5430 5437 5440 5444 5451 5454 5465 5467 5479 5477 5477 5478 5480 5482 5483 5486 5488 5490 5491 5493 5495 5497 5499 5501 5501 5501 5500 5498 5496 5496 5495 5493 5491 5489 5489 5488 5487 5487 5486 5485 5486
5399 5413 5416 5418 5428 5432 5437 5442 5447 5453 5457 5464 5464 5465 5466 5467 5470 5472 5474 5477 5479 5482 5484 5486 5488 5490 5492 5493 5493 5492 5490 5489 5488 5487 5485 5483 5482 5481 5480 5479 5479 5479 5478 5478
5387 5402 5404 5407 5418 5423 5427 5431 5436 5441 5448 5448 5450 5454 5454 5456 5458 5460 5464 5467 5469 5472 5475 5477 5479 5481 5482 5484 5483 5483 5482 5481 5479 5478 5477 5476 5475 5474 5473 5472 5471 5471 5471 5471
5372 5382 5385 5404 5410 5417 5420 5421 5423 5427 5432 5435 5438 5441 5444 5445 5447 5450 5454 5457 5460 5463 5466 5468 5469 5471 5473 5474 5474 5473 5472 5472 5470 5470 5469 5467 5466 5466 5465 5464 5464 5464 5463 5463
5362 5372 5381 5390 5393 5394 5402 5408 5407 5412 5417 5420 5423 5430 5433 5435 5437 5440 5443 5446 5449 5452 5455 5457 5459 5461 5462 5463 5463 5463 5463 5462 5462 5461 5461 5459 5459 5459 5458 5457 5456 5456 5455 5455
5353 5362 5368 5371 5378 5385 5392 5394 5396 5398 5403 5406 5411 5414 5421 5423 5425 5428 5432 5435 5438 5441 5444 5446 5448 5450 5451 5452 5452 5452 5453 5453 5452 5452 5452 5452 5452 5451 5450 5450 5449 5448 5447 5447
5342 5350 5353 5354 5364 5377 5377 5378 5381 5384 5388 5392 5395 5400 5404 5408 5412 5417 5420 5424 5428 5430 5433 5435 5437 5439 5440 5440 5441 5441 5442 5442 5442 5442 5442 5442 5442 5442 5442 5441 5439 5438 5437 5436
5330 5334 5338 5342 5349 5351 5354 5360 5366 5372 5376 5380 5384 5388 5392 5396 5401 5405 5409 5413 5416 5419 5421 5423 5425 5427 5428 5428 5430 5431 5432 5432 5432 5432 5432 5432 5432 5431 5431 5431 5430 5428 5427 5426
5316 5321 5324 5329 5332 5337 5341 5347 5353 5359 5364 5368 5372 5375 5380 5384 5388 5393 5396 5400 5403 5405 5408 5410 5411 5413 5415 5416 5418 5420 5421 5421 5421 5421 5421 5421 5421 5421 5420 5420 5419 5419 5418 5417
5307 5313 5315 5319 5323 5328 5333 5337 5343 5347 5352 5357 5360 5364 5367 5372 5376 5380 5384 5386 5389 5392 5395 5396 5398 5400 5402 5404 5407 5408 5409 5409 5410 5410 5410 5410 5410 5410 5410 5410 5409 5409 5409 5409
5296 5301 5306 5312 5314 5318 5323 5327 5332 5337 5340 5344 5348 5352 5356 5359 5363 5367 5371 5373 5376 5379 5381 5383 5385 5388 5390 5392 5395 5396 5397 5397 5398 5399 5399 5398 5398 5398 5400 5400 5401 5401 5401 5400
5286 5291 5292 5298 5304 5308 5312 5316 5320 5325 5329 5333 5336 5340 5343 5347 5350 5354 5357 5361 5364 5366 5368 5370 5372 5375 5377 5380 5382 5384 5385 5385 5386 5386 5387 5386 5386 5387 5388 5390 5391 5392 5392 5391
5276 5281 5284 5289 5294 5297 5301 5305 5309 5313 5317 5321 5325 5328 5332 5335 5338 5341 5345 5348 5351 5353 5355 5357 5360 5362 5364 5367 5370 5371 5372 5373 5373 5374 5375 5375 5376 5376 5377 5378 5379 5380 5380 5380
5269 5272 5276 5279 5282 5286 5290 5295 5299 5302 5306 5310 5313 5317 5320 5322 5325 5329 5331 5334 5337 5340 5343 5345 5348 5350 5352 5355 5357 5359 5360 5361 5362 5362 5363 5363 5364 5365 5365 5367 5367 5366 5367 5367
5261 5263 5265 5269 5273 5276 5280 5284 5288 5291 5294 5297 5300 5304 5307 5310 5313 5316 5319 5322 5325 5328 5331 5333 5336 5338 5340 5342 5345 5346 5347 5348 5349 5350 5351 5352 5353 5354 5355 5356 5356 5355 5355 5355
5252 5255 5258 5260 5263 5266 5269 5272 5275 5278 5281 5284 5287 5291 5294 5297 5300 5303 5306 5310 5312 5315 5318 5321 5324 5326 5328 5331 5333 5334 5335 5337 5338 5339 5340 5341 5342 5344 5345 5345 5345 5344 5344 5343
5243 5246 5248 5250 5252 5255 5257 5259 5262 5265 5268 5272 5275 5279 5282 5285 5289 5291 5293 5296 5299 5302 5305 5308 5311 5314 5317 5319 5321 5322 5323 5324 5326 5327 5328 5329 5331 5332 5333 5333 5333 5333 5332 5332
5233 5235 5236 5238 5240 5243 5246 5248 5251 5253 5256 5260 5264 5267 5269 5272 5275 5278 5280 5283 5287 5290 5293 5296 5299 5302 5305 5307 5309 5310 5311 5312 5313 5314 5316 5318 5320 5321 5321 5322 5322 5322 5321 5321
5226 5227 5228 5229 5230 5232 5234 5236 5239 5241 5244 5248 5251 5254 5256 5259 5262 5265 5268 5271 5275 5278 5281 5284 5288 5291 5293 5295 5297 5299 5300 5301 5302 5303 5305 5307 5308 5309 5309 5310 5310 5309 5309 5309
5218 5219 5220 5221 5222 5223 5224 5226 5228 5231 5233 5236 5239 5242 5245 5247 5250 5253 5256 5259 5261 5264 5269 5273 5276 5279 5282 5284 5287 5288 5289 5290 5291 5292 5294 5295 5296 5297 5297 5297 5297 5297 5297 5297
5209 5210 5211 5212 5212 5214 5215 5216 5218 5220 5223 5225 5228 5231 5233 5236 5239 5242 5245 5248 5251 5255 5258 5262 5265 5268 5270 5273 5276 5276 5277 5279 5280 5281 5283 5284 5285 5285 5286 5286 5286 5286 5286 5285
5200 5201 5202 5203 5203 5205 5206 5207 5209 5211 5213 5216 5218 5221 5223 5226 5229 5231 5234 5236 5240 5244 5248 5251 5254 5257 5260 5263 5264 5265 5267 5268 5270 5271 5272 5273 5274 5274 5274 5274 5274 5274 5274 5273
5192 5193 5193 5194 5195 5196 5197 5199 5200 5202 5204 5206 5208 5211 5212 5214 5217 5220 5224 5227 5230 5235 5238 5241 5244 5248 5251 5252 5253 5255 5256 5258 5259 5260 5261 5261 5262 5263 5263 5263 5263 5263 5262 5262
5184 5184 5185 5186 5186 5188 5189 5191 5193 5194 5195 5197 5199 5201 5203 5206 5209 5211 5213 5217 5221 5225 5228 5231 5235 5238 5241 5241 5242 5244 5245 5247 5248 5249 5250 5251 5251 5252 5252 5252 5252 5252 5252 5252
5177 5177 5177 5178 5179 5181 5182 5183 5184 5186 5188 5190 5192 5194 5195 5197 5199 5202 5204 5208 5211 5215 5217 5220 5224 5227 5228 5230 5231 5233 5235 5236 5238 5239 5240 5241 5241 5242 5242 5243 5243 5243 5243 5243
5170 5170 5171 5171 5172 5173 5174 5175 5177 5178 5180 5182 5184 5186 5188 5189 5192 5194 5196 5199 5202 5205 5207 5209 5212 5215 5217 5219 5221 5223 5225 5226 5228 5229 5230 5231 5232 5233 5234 5235 5235 5235 5235 5235
5165 5165 5166 5167 5168 5168 5168 5168 5170 5171 5172 5174 5176 5179 5180 5182 5184 5186 5188 5191 5193 5196 5198 5200 5203 5205 5207 5209 5212 5214 5216 5217 5219 5221 5222 5223 5224 5225 5226 5227 5227 5228 5228 5228